"2000/01/01", 70, 95, 37
"2000/01/02", 64, 77, 44
"2000/01/03", 67, 90, 34
"2000/01/04", 53, 79, 26
"2000/01/05", 72, 86, 43
"2000/01/06", 82, 91, 72
"2000/01/07", 89, 96, 70
"2000/01/08", 74, 87, 61
"2000/01/09", 78, 94, 53
"2000/01/10", 84, 96, 39
"2000/01/11", 52, 85, 27
"2000/01/12", 73, 94, 48
"2000/01/13", 95, 97, 91
"2000/01/14", 82, 97, 28
"2000/01/15", 74, 89, 56
"2000/01/16", 71, 86, 55
"2000/01/17", 81, 91, 61
"2000/01/18", 67, 77, 55
"2000/01/19", 76, 95, 59
"2000/01/20", 57, 97, 20
"2000/01/21", 39, 64, 21
"2000/01/22", 52, 72, 30
"2000/01/23", 72, 89, 49
"2000/01/24", 84, 95, 74
"2000/01/25", 61, 96, 33
"2000/01/26", 47, 67, 17
"2000/01/27", 56, 77, 39
"2000/01/28", 57, 75, 33
"2000/01/29", 62, 83, 26
"2000/01/30", 64, 90, 34
"2000/01/31", 53, 80, 26
"2000/02/01", 48, 73, 30
"2000/02/02", 52, 86, 21
"2000/02/03", 72, 88, 46
"2000/02/04", 70, 87, 47
"2000/02/05", 69, 89, 41
"2000/02/06", 79, 90, 69
"2000/02/07", 57, 94, 19
"2000/02/08", 74, 97, 35
"2000/02/09", 58, 96, 27
"2000/02/10", 42, 64, 24
"2000/02/11", 60, 84, 24
"2000/02/12", 71, 92, 35
"2000/02/13", 66, 87, 39
"2000/02/14", 72, 88, 56
"2000/02/15", 65, 94, 27
"2000/02/16", 40, 70, 19
"2000/02/17", 38, 69, 17
"2000/02/18", 47, 75, 19
"2000/02/19", 57, 77, 36
"2000/02/20", 84, 95, 63
"2000/02/21", 45, 94, 19
"2000/02/22", 39, 58, 19
"2000/02/23", 48, 80, 25
"2000/02/24", 68, 94, 34
"2000/02/25", 41, 66, 19
"2000/02/26", 75, 95, 44
"2000/02/27", 74, 91, 44
"2000/02/28", 45, 68, 20
"2000/02/29", 35, 63, 23
"2000/03/01", 47, 80, 27
"2000/03/02", 69, 93, 36
"2000/03/03", 66, 94, 19
"2000/03/04", 79, 98, 54
"2000/03/05", 79, 98, 39
"2000/03/06", 73, 80, 56
"2000/03/07", 69, 88, 23
"2000/03/08", 52, 89, 19
"2000/03/09", 50, 91, 17
"2000/03/10", 35, 66, 13
"2000/03/11", 49, 85, 25
"2000/03/12", 75, 87, 56
"2000/03/13", 55, 92, 26
"2000/03/14", 40, 67, 14
"2000/03/15", 53, 82, 15
"2000/03/16", 86, 97, 64
"2000/03/17", 55, 88, 31
"2000/03/18", 54, 78, 20
"2000/03/19", 61, 77, 37
"2000/03/20", 51, 84, 22
"2000/03/21","*","*","*"
"2000/03/22", 61, 92, 26
"2000/03/23", 69, 80, 53
"2000/03/24", 70, 95, 25
"2000/03/25", 41, 69, 22
"2000/03/26", 40, 63, 24
"2000/03/27", 47, 87, 17
"2000/03/28", 82, 91, 58
"2000/03/29", 61, 91, 29
"2000/03/30","*","*","*"
"2000/03/31", 70, 89, 47
"2000/04/01", 45, 95, 11
"2000/04/02", 31, 71, 14
"2000/04/03", 59, 73, 37
"2000/04/04", 70, 88, 48
"2000/04/05", 93, 98, 82
"2000/04/06", 69, 97, 24
"2000/04/07", 73, 86, 57
"2000/04/08", 58, 90, 13
"2000/04/09", 63, 80, 41
"2000/04/10", 77, 96, 59
"2000/04/11", 63, 96, 18
"2000/04/12", 58, 91, 28
"2000/04/13", 77, 93, 66
"2000/04/14", 70, 95, 34
"2000/04/15", 79, 96, 59
"2000/04/16", 67, 94, 39
"2000/04/17", 48, 78, 29
"2000/04/18", 66, 88, 36
"2000/04/19", 79, 92, 48
"2000/04/20", 90, 94, 84
"2000/04/21", 93, 97, 88
"2000/04/22", 61, 92, 24
"2000/04/23", 70, 88, 42
"2000/04/24", 69, 91, 38
"2000/04/25", 58, 92, 22
"2000/04/26", 79, 94, 62
"2000/04/27", 89, 96, 68
"2000/04/28", 59, 93, 30
"2000/04/29", 53, 83, 28
"2000/04/30", 62, 84, 35
"2000/05/01", 68, 89, 36
"2000/05/02", 89, 97, 76
"2000/05/03", 78, 94, 46
"2000/05/04", 70, 84, 44
"2000/05/05", 66, 83, 43
"2000/05/06", 80, 89, 74
"2000/05/07", 82, 90, 68
"2000/05/08", 73, 89, 46
"2000/05/09", 77, 94, 54
"2000/05/10", 87, 94, 75
"2000/05/11", 93, 97, 86
"2000/05/12", 91, 96, 81
"2000/05/13", 93, 96, 83
"2000/05/14", 90, 96, 85
"2000/05/15", 86, 97, 62
"2000/05/16", 82, 95, 59
"2000/05/17", 88, 95, 78
"2000/05/18", 86, 95, 72
"2000/05/19", 83, 90, 70
"2000/05/20", 87, 95, 81
"2000/05/21", 89, 94, 80
"2000/05/22", 85, 96, 65
"2000/05/23", 86, 95, 61
"2000/05/24", 83, 95, 64
"2000/05/25", 84, 94, 68
"2000/05/26", 76, 94, 52
"2000/05/27", 76, 90, 60
"2000/05/28", 86, 96, 69
"2000/05/29", 71, 88, 34
"2000/05/30", 68, 91, 27
"2000/05/31", 82, 97, 59
"2000/06/01", 85, 97, 74
"2000/06/02", 77, 95, 45
"2000/06/03", 86, 95, 78
"2000/06/04", 80, 95, 62
"2000/06/05", 78, 92, 63
"2000/06/06", 72, 91, 43
"2000/06/07", 72, 91, 40
"2000/06/08", 74, 92, 48
"2000/06/09", 87, 95, 75
"2000/06/10", 84, 95, 70
"2000/06/11", 91, 94, 85
"2000/06/12", 90, 94, 79
"2000/06/13", 93, 96, 89
"2000/06/14", 93, 96, 88
"2000/06/15", 87, 96, 73
"2000/06/16", 83, 96, 48
"2000/06/17", 91, 96, 81
"2000/06/18", 80, 96, 51
"2000/06/19", 82, 94, 65
"2000/06/20", 83, 94, 63
"2000/06/21", 83, 93, 68
"2000/06/22", 76, 95, 54
"2000/06/23", 86, 93, 78
"2000/06/24", 93, 96, 86
"2000/06/25", 87, 95, 70
"2000/06/26", 87, 92, 82
"2000/06/27", 86, 94, 69
"2000/06/28", 90, 96, 71
"2000/06/29", 88, 96, 73
"2000/06/30", 85, 94, 73
"2000/07/01", 83, 96, 66
"2000/07/02", 84, 94, 63
"2000/07/03", 81, 95, 63
"2000/07/04", 85, 94, 67
"2000/07/05", 87, 97, 71
"2000/07/06", 89, 97, 67
"2000/07/07", 95, 98, 90
"2000/07/08", 73, 97, 43
"2000/07/09", 66, 86, 46
"2000/07/10", 75, 87, 60
"2000/07/11", 82, 97, 63
"2000/07/12", 85, 93, 68
"2000/07/13", 80, 93, 67
"2000/07/14", 80, 94, 53
"2000/07/15", 81, 92, 67
"2000/07/16", 84, 95, 56
"2000/07/17", 77, 94, 56
"2000/07/18", 83, 96, 72
"2000/07/19", 86, 96, 69
"2000/07/20", 86, 97, 70
"2000/07/21", 92, 97, 81
"2000/07/22", 78, 93, 51
"2000/07/23", 77, 90, 51
"2000/07/24", 71, 84, 53
"2000/07/25", 81, 93, 67
"2000/07/26", 92, 95, 84
"2000/07/27", 92, 97, 78
"2000/07/28", 85, 96, 69
"2000/07/29", 81, 94, 60
"2000/07/30", 78, 91, 61
"2000/07/31", 75, 90, 56
"2000/08/01", 75, 92, 57
"2000/08/02", 84, 95, 60
"2000/08/03", 84, 95, 65
"2000/08/04", 84, 95, 57
"2000/08/05", 83, 94, 65
"2000/08/06", 82, 94, 60
"2000/08/07", 85, 94, 68
"2000/08/08", 80, 94, 52
"2000/08/09", 88, 95, 77
"2000/08/10", 82, 95, 57
"2000/08/11", 77, 93, 56
"2000/08/12", 77, 94, 57
"2000/08/13", 92, 96, 82
"2000/08/14", 82, 91, 75
"2000/08/15", 87, 93, 74
"2000/08/16", 85, 93, 68
"2000/08/17", 84, 91, 73
"2000/08/18", 79, 91, 50
"2000/08/19", 83, 91, 71
"2000/08/20", 82, 90, 71
"2000/08/21", 85, 94, 68
"2000/08/22", 90, 96, 79
"2000/08/23", 86, 94, 69
"2000/08/24", 77, 92, 53
"2000/08/25", 84, 95, 66
"2000/08/26", 78, 92, 54
"2000/08/27", 83, 93, 62
"2000/08/28", 80, 94, 54
"2000/08/29", 79, 94, 59
"2000/08/30", 84, 95, 68
"2000/08/31", 86, 94, 54
"2000/09/01", 84, 95, 75
"2000/09/02", 76, 90, 57
"2000/09/03", 54, 87, 30
"2000/09/04", 77, 86, 67
"2000/09/05", 91, 96, 79
"2000/09/06", 90, 96, 70
"2000/09/07", 94, 96, 89
"2000/09/08", 93, 96, 79
"2000/09/09", 93, 97, 83
"2000/09/10", 86, 95, 64
"2000/09/11", 94, 97, 89
"2000/09/12", 87, 96, 65
"2000/09/13", 93, 96, 88
"2000/09/14", 93, 97, 83
"2000/09/15", 93, 98, 75
"2000/09/16", 88, 96, 68
"2000/09/17", 89, 96, 71
"2000/09/18", 82, 96, 60
"2000/09/19", 83, 93, 69
"2000/09/20", 74, 92, 47
"2000/09/21", 76, 90, 59
"2000/09/22", 80, 94, 62
"2000/09/23", 86, 93, 77
"2000/09/24", 88, 96, 73
"2000/09/25", 82, 94, 63
"2000/09/26", 73, 91, 59
"2000/09/27", 62, 95, 42
"2000/09/28", 60, 89, 33
"2000/09/29", 70, 86, 55
"2000/09/30", 86, 94, 73
"2000/10/01", 85, 95, 69
"2000/10/02", 87, 95, 77
"2000/10/03", 91, 97, 80
"2000/10/04", 78, 94, 53
"2000/10/05", 81, 91, 70
"2000/10/06", 75, 87, 60
"2000/10/07", 64, 85, 39
"2000/10/08", 75, 87, 61
"2000/10/09", 94, 97, 81
"2000/10/10", 88, 98, 67
"2000/10/11", 88, 97, 69
"2000/10/12", 87, 98, 61
"2000/10/13", 71, 88, 62
"2000/10/14", 69, 85, 48
"2000/10/15", 76, 95, 59
"2000/10/16", 76, 96, 59
"2000/10/17", 79, 88, 69
"2000/10/18", 63, 87, 40
"2000/10/19", 70, 85, 57
"2000/10/20", 86, 97, 60
"2000/10/21", 83, 97, 57
"2000/10/22", 71, 83, 61
"2000/10/23", 89, 97, 76
"2000/10/24","*","*","*"
"2000/10/25", 91, 96, 78
"2000/10/26", 79, 96, 46
"2000/10/27", 57, 86, 41
"2000/10/28", 79, 94, 68
"2000/10/29", 91, 96, 81
"2000/10/30", 77, 96, 53
"2000/10/31", 70, 83, 53
"2000/11/01", 93, 98, 74
"2000/11/02", 94, 96, 90
"2000/11/03", 87, 94, 79
"2000/11/04", 80, 91, 65
"2000/11/05", 82, 96, 53
"2000/11/06", 80, 93, 49
"2000/11/07", 92, 98, 74
"2000/11/08", 84, 99, 52
"2000/11/09", 62, 75, 52
"2000/11/10", 74, 87, 58
"2000/11/11", 69, 94, 39
"2000/11/12", 77, 89, 60
"2000/11/13", 72, 95, 48
"2000/11/14", 76, 96, 62
"2000/11/15","*","*","*"
"2000/11/16","*","*","*"
"2000/11/17","*","*","*"
"2000/11/18", 61, 95, 29
"2000/11/19", 57, 80, 41
"2000/11/20", 87, 99, 67
"2000/11/21", 86, 98, 69
"2000/11/22", 60, 75, 47
"2000/11/23", 73, 89, 61
"2000/11/24", 84, 96, 57
"2000/11/25", 87, 96, 77
"2000/11/26", 88, 96, 67
"2000/11/27", 85, 97, 75
"2000/11/28", 55, 81, 26
"2000/11/29", 54, 83, 39
"2000/11/30", 59, 86, 37
"2000/12/01", 64, 79, 46
"2000/12/02", 67, 94, 48
"2000/12/03", 80, 97, 56
"2000/12/04", 57, 76, 38
"2000/12/05", 63, 86, 41
"2000/12/06", 43, 82, 25
"2000/12/07", 47, 78, 28
"2000/12/08", 62, 89, 39
"2000/12/09", 74, 95, 34
"2000/12/10", 76, 91, 58
"2000/12/11", 60, 81, 39
"2000/12/12", 40, 81, 21
"2000/12/13", 64, 84, 37
"2000/12/14", 72, 78, 65
"2000/12/15", 71, 94, 35
"2000/12/16", 65, 84, 32
"2000/12/17", 70, 88, 50
"2000/12/18", 84, 90, 74
"2000/12/19", 69, 97, 32
"2000/12/20", 77, 94, 41
"2000/12/21", 76, 95, 46
"2000/12/22", 61, 87, 41
"2000/12/23", 72, 87, 53
"2000/12/24", 52, 82, 27
"2000/12/25", 62, 81, 40
"2000/12/26", 44, 73, 26
"2000/12/27", 41, 71, 24
"2000/12/28", 66, 85, 44
"2000/12/29", 61, 87, 34
"2000/12/30", 66, 76, 52
"2000/12/31", 77, 93, 67
